Location: Izdebno
(52.6670°N, 16.2170°E)
Time: 03:14:11
(UTC+02:00)

Transit 2A - Pass Details

Date: 03 March 2024
Orbit: 596 x 956 km, 66.7° (Epoch: 21 April)

Event Time Altitude Azimuth Distance (km) Brightness Sun altitude
Rises 20:09:50 0° 262° (W) 2,838 9.9 -23.4°
Reaches altitude 10° 20:12:24 10° 276° (W) 1,946 9.1 -23.7°
Maximum altitude 20:15:57 24° 332° (NNW) 1,284 7.7 -24.2°
Enters shadow 20:19:34 10° 26° (NNE) 2,005 8.1 -24.7°
Drops below altitude 10° 20:19:39 10° 27° (NNE) 2,030 - -24.7°
Sets 20:22:24 0° 41° (NE) 2,992 - -25.1°
